User: anonymous   Login
Location: Castiglione Fibocchi
(43.5333°N, 11.7667°E)
Time: 15:54:22
(UTC+00:00)
Language:

IRS-P3 - Orbit

View from above orbital plane
View from above orbital plane
View from above satellite
View from above satellite

Ground track
Ground track

The orbit data is extracted from the following two-line orbital elements,

1 23827U 96017A   20292.83266617  .00000019  00000-0  28687-4 0  9994
2 23827  98.8598 242.3492 0004349 109.4131 250.7517 14.22628495275819
Epoch (UTC): 18 October 2020 19:59:02
Eccentricity: 0.0004349
inclination: 98.8598°
perigee height: 813 km
apogee height: 819 km
right ascension of ascending node: 242.3492°
argument of perigee: 109.4131°
revolutions per day: 14.22628495
mean anomaly at epoch: 250.7517°
orbit number at epoch: 27581

The dashed part of the orbit path shows where the satellite is in the earth's shadow,  

DLR